DW6839 Weather Reports


time (UTC)temp
F
wind
direction
speed
knots
gust
knots
rain 1hr
in
rain 24hr
in
rain mn
in
humidity
%
barometer
mb
20210923182015 79 126 0.9 6.1 0.00 0.01 0.01 77 1017.9
20210923181015 79 167 0.0 3.5 0.00 0.01 0.01 79 1018.1
20210923180015 80 203 0.0 7.0 0.00 0.01 0.01 78 1018.2
20210923175016 78 52 0.0 9.6 0.00 0.01 0.01 80 1018.2
20210923174015 79 128 1.7 9.6 0.00 0.01 0.01 76 1018.2
20210923173015 81 143 1.7 7.8 0.00 0.01 0.01 75 1018.2
20210923172015 82 123 0.9 8.7 0.00 0.01 0.01 76 1018.3
20210923171015 80 140 0.9 10.4 0.01 0.01 0.01 77 1018.4
20210923170015 79 113 0.0 7.0 0.01 0.01 0.01 79 1018.5
20210923165015 79 113 0.0 10.4 0.01 0.01 0.01 78 1018.5
20210923164015 79 161 0.9 9.6 0.01 0.01 0.01 80 1018.6
20210923163015 79 154 0.9 7.0 0.01 0.01 0.01 82 1018.6
20210923162015 79 120 0.0 7.0 0.01 0.01 0.01 85 1018.5
20210923161015 79 145 0.0 3.5 0.00 0.00 0.00 80 1018.5
20210923160015 80 0.0 2.6 0.00 0.00 0.00 79 1018.5
20210923155015 79 172 0.9 7.0 0.00 0.00 0.00 82 1018.5
20210923154015 78 127 0.0 4.3 0.00 0.00 0.00 83 1018.6
20210923153015 77 217 0.0 7.8 0.00 0.00 0.00 83 1018.9
20210923152015 78 129 0.9 7.0 0.00 0.00 0.00 82 1018.9
20210923151015 77 129 0.9 6.1 0.00 0.00 0.00 82 1018.9
20210923150015 76 128 0.0 2.6 0.00 0.00 0.00 86 1019.0
20210923145015 75 119 0.0 0.9 0.00 0.00 0.00 88 1019.0
20210923144015 75 160 0.0 2.6 0.00 0.00 0.00 89 1018.9
20210923143015 75 160 0.0 3.5 0.00 0.00 0.00 89 1019.0
20210923142015 74 177 0.9 5.2 0.00 0.00 0.00 90 1019.0
20210923141015 74 138 0.0 7.8 0.00 0.00 0.00 91 1019.0
20210923140015 73 227 0.0 1.7 0.00 0.00 0.00 92 1018.9
20210923135015 73 155 0.0 4.3 0.00 0.00 0.00 94 1018.8
20210923134015 72 233 0.0 2.6 0.00 0.00 0.00 94 1018.7
20210923133015 71 123 0.0 5.2 0.00 0.00 0.00 95 1018.7
20210923132015 71 0.0 0.9 0.00 0.00 0.00 96 1018.7
20210923131015 70 0.0 0.0 0.00 0.00 0.00 97 1018.8
20210923130015 70 0.0 0.0 0.00 0.00 0.00 97 1018.7
20210923125015 70 153 0.0 0.9 0.00 0.00 0.00 97 1018.8
20210923124015 70 0.0 0.0 0.00 0.00 0.00 97 1018.8
20210923123015 70 150 0.0 1.7 0.00 0.00 0.00 97 1018.8
20210923122015 69 0.0 2.6 0.00 0.00 0.00 97 1018.8
20210923121015 69 128 0.0 2.6 0.00 0.00 0.00 97 1018.8
20210923120015 69 0.0 0.0 0.00 0.00 0.00 97 1018.8
20210923115015 69 0.0 0.0 0.00 0.00 0.00 97 1018.8
20210923114015 68 0.0 0.0 0.00 0.00 0.00 97 1018.9
20210923113015 68 0.0 0.9 0.00 0.00 0.00 97 1018.8
20210923112015 68 0.0 0.0 0.00 0.00 0.00 97 1018.8
20210923111015 68 127 0.0 2.6 0.00 0.00 0.00 97 1018.8
20210923110015 68 122 0.0 0.9 0.00 0.00 0.00 97 1018.8
20210923105015 69 0.0 2.6 0.00 0.00 0.00 97 1018.9
20210923104015 68 0.0 0.9 0.00 0.00 0.00 97 1018.9
20210923103015 68 137 0.0 1.7 0.00 0.00 0.00 97 1018.8
20210923102015 68 122 0.0 3.5 0.00 0.00 0.00 97 1018.8
20210923101015 67 0.0 0.0 0.00 0.00 0.00 97 1018.7
20210923100015 67 0.0 1.7 0.00 0.00 0.00 97 1018.7
20210923095015 67 0.0 1.7 0.00 0.00 0.00 97 1018.7
20210923094015 67 0.0 0.0 0.00 0.00 0.00 97 1018.7
20210923093014 67 178 0.0 0.9 0.00 0.00 0.00 97 1018.7
20210923092015 67 178 0.0 1.7 0.00 0.00 0.00 97 1018.6
20210923091015 67 0.0 0.0 0.00 0.00 0.00 97 1018.6
20210923090015 67 0.0 0.0 0.00 0.00 0.00 97 1018.7
20210923085015 67 178 0.0 1.7 0.00 0.00 0.00 97 1018.8
20210923084015 67 0.0 0.0 0.00 0.00 0.00 97 1018.8
20210923083015 67 0.0 0.0 0.00 0.00 0.00 97 1018.8
20210923082015 67 0.0 0.0 0.00 0.00 0.00 96 1018.8
20210923081015 66 0.0 0.0 0.00 0.00 0.00 96 1018.9
20210923080015 66 0.0 0.0 0.00 0.00 0.00 96 1019.0
20210923075015 66 0.0 0.9 0.00 0.00 0.00 96 1018.9
20210923074015 66 0.0 0.0 0.00 0.00 0.00 95 1018.9
20210923073015 66 0.0 0.0 0.00 0.00 0.00 95 1018.9
20210923072015 67 0.0 0.0 0.00 0.00 0.00 95 1019.1
20210923071015 67 0.0 0.0 0.00 0.00 0.00 95 1019.1
20210923070014 67 0.0 0.0 0.00 0.00 0.00 95 1019.3
20210923065015 67 0.0 0.0 0.00 0.00 0.00 94 1019.4
20210923064015 68 0.0 0.0 0.00 0.00 0.00 95 1019.3
20210923063017 68 0.0 0.0 0.00 0.00 0.00 94 1019.2
20210923062017 68 0.0 0.0 0.00 0.00 0.00 94 1019.2
20210923061017 69 0.0 0.0 0.00 0.00 0.00 94 1019.3
20210923060016 69 0.0 0.0 0.00 0.00 0.00 94 1019.4
20210923055017 69 0.0 0.0 0.00 0.00 0.00 94 1019.5
20210923054017 69 0.0 0.0 0.00 0.00 0.00 94 1019.6
20210923053017 70 0.0 0.0 0.00 0.00 0.00 94 1019.6
20210923052017 70 0.0 0.0 0.00 0.00 0.00 94 1019.7
20210923051016 70 0.0 2.6 0.00 0.00 0.00 94 1019.7
20210923050017 70 0.0 0.0 0.00 0.00 0.00 94 1019.7
20210923045016 71 140 0.0 0.9 0.00 0.00 0.00 94 1019.7
20210923044019 71 130 0.0 0.9 0.00 0.00 0.00 94 1019.7
20210923043017 71 0.0 0.0 0.00 0.00 0.00 94 1019.7
20210923042016 71 0.0 0.9 0.00 0.00 0.00 93 1019.7
20210923041016 71 0.0 3.5 0.00 0.00 0.00 93 1019.7
20210923040017 71 109 0.0 6.1 0.00 0.00 0.00 93 1019.8
20210923035015 71 114 0.0 1.7 0.00 0.00 0.00 93 1019.8
20210923034015 71 143 0.9 7.8 0.00 0.00 0.00 93 1019.6
20210923033015 71 137 0.0 4.3 0.00 0.00 0.00 93 1019.6
20210923032015 71 130 0.9 7.8 0.00 0.00 0.00 93 1019.6
20210923031015 71 0.0 6.1 0.00 0.00 0.00 93 1019.7
20210923030015 71 160 0.0 1.7 0.00 0.00 0.00 93 1019.7
20210923025015 71 123 0.0 1.7 0.00 0.00 0.00 93 1019.7
20210923024015 71 132 0.0 7.0 0.00 0.00 0.00 93 1019.6
20210923023015 71 144 0.0 5.2 0.00 0.00 0.00 92 1019.6
20210923022015 71 169 0.0 2.6 0.00 0.00 0.00 92 1019.6
20210923021015 72 161 0.0 0.9 0.00 0.00 0.00 92 1019.6
20210923020015 72 150 0.0 0.9 0.00 0.00 0.00 92 1019.5
20210923015015 72 137 0.0 6.1 0.00 0.00 0.00 91 1019.6
20210923014015 72 171 0.0 0.9 0.00 0.00 0.00 91 1019.6
20210923013015 72 0.0 0.9 0.00 0.00 0.00 91 1019.5
20210923012015 73 112 0.0 2.6 0.00 0.00 0.00 91 1019.4
20210923011015 73 126 0.9 5.2 0.00 0.00 0.00 91 1019.4
20210923010015 73 209 0.0 2.6 0.00 0.00 0.00 91 1019.3
20210923005015 73 140 0.0 6.1 0.00 0.00 0.00 91 1019.3
20210923004015 73 183 0.9 6.1 0.00 0.00 0.00 91 1019.3
20210923003015 73 138 0.0 4.3 0.00 0.00 0.00 91 1019.3
20210923002015 73 157 0.0 4.3 0.00 0.00 0.00 91 1019.3
20210923001015 73 197 0.9 4.3 0.00 0.00 0.00 91 1019.2
20210923000015 73 125 0.0 3.5 0.00 0.00 0.00 91 1019.2
20210922235015 73 139 0.9 6.1 0.00 0.00 0.00 92 1019.0
20210922234015 73 82 0.0 4.3 0.00 0.00 0.00 92 1018.9
20210922233015 73 133 0.0 6.1 0.00 0.00 0.00 92 1019.0
20210922232015 72 136 0.0 6.1 0.00 0.00 0.00 92 1019.0
20210922231015 72 153 0.0 4.3 0.00 0.00 0.00 93 1018.9
20210922230015 72 177 0.0 4.3 0.00 0.00 0.00 93 1018.8
20210922225015 72 157 0.9 7.0 0.00 0.00 0.00 94 1018.7
20210922224015 72 188 0.0 5.2 0.00 0.00 0.00 94 1018.7
20210922223016 72 0.0 4.3 0.00 0.00 0.00 94 1018.7
20210922222015 72 113 0.0 5.2 0.00 0.00 0.00 95 1018.7
20210922221015 72 0.0 6.1 0.00 0.00 0.00 95 1018.8
20210922220015 72 0.0 3.5 0.00 0.00 0.00 94 1018.8
20210922215015 72 148 0.0 3.5 0.00 0.00 0.00 95 1018.9
20210922213515 72 123 0.0 5.2 0.00 0.00 0.00 95 1018.9
20210922212515 72 123 0.0 3.5 0.00 0.00 0.00 94 1018.9
20210922211515 73 138 0.0 0.9 0.00 0.00 0.00 94 1018.9
20210922210515 73 146 0.0 0.9 0.00 0.00 0.00 93 1019.1
20210922205515 73 167 0.0 0.9 0.00 0.00 0.00 93 1019.1
20210922204515 73 0.0 2.6 0.00 0.00 0.00 92 1019.1
20210922203515 74 129 0.0 4.3 0.00 0.00 0.00 91 1019.2
20210922202515 74 135 0.0 2.6 0.00 0.00 0.00 90 1019.2
20210922201515 74 183 0.0 6.1 0.00 0.00 0.00 89 1019.3
20210922200515 74 235 0.0 2.6 0.00 0.00 0.00 89 1019.3
20210922195516 74 92 0.0 2.6 0.00 0.00 0.00 89 1019.4
20210922194515 74 118 0.0 5.2 0.00 0.00 0.00 88 1019.4
20210922193515 74 126 0.9 7.8 0.00 0.00 0.00 88 1019.5
20210922192515 74 121 0.0 11.3 0.00 0.00 0.00 88 1019.6
20210922191515 74 133 0.0 6.1 0.00 0.00 0.00 88 1019.9
20210922190515 75 127 0.0 7.0 0.00 0.00 0.00 86 1019.9
20210922185515 75 147 1.7 10.4 0.00 0.00 0.00 85 1020.0
20210922184515 75 152 0.9 6.1 0.00 0.00 0.00 84 1020.0
20210922183515 75 241 0.9 7.0 0.00 0.00 0.00 85 1020.1
20210922182515 76 224 0.0 6.1 0.00 0.00 0.00 84 1020.2